星链-33555 (STARLINK-33555)

导读

STARLINK-33555是美国SpaceX公司星链星座的一员,于美国东部时间2024年11月25日发射,属于猎鹰9号火箭搭载发射的星链V2 Mini批次,具备卫星直连手机的通信能力。作为低轨互联网通信卫星,它旨在为全球提供高速宽带互联网服务,卫星采用霍尔推进器设计,具备自主避撞能力,服役末期会主动离轨再入大气层销毁,减少太空垃圾。此次发射完成后,SpaceX的手机通信星座即将建成。

Basic Information
目录编号:
62104
目录名称:
STARLINK-33555
国际标识:
2024-220S
轨道中心:
EARTH
卫星名称:
星链-33555
卫星全名:
星链-33555 (STARLINK-33555)
卫星状态:
在轨 (已飞行648 天)
发射日期:
2024-11-25 UTC
国别 :
美国 (US)
星等 :
--
Orbit Information
数据来源 国际轨道数据
星历时间: 2026-09-04T11:44:17+0800
13小时前
查看轨道信息
半长轴: 6861.126km
偏心率: 0.0001463
轨道倾角: 42.999°
近地点辐角 267.918°
升交点赤经 277.796°
平近点角 92.151°
近地点: 481.985km
远地点: 483.993km
周期: 94.265分钟
每日圈数: 15.276004
Detailed Information
固有亮度:
5
最大亮度:
2.5
卫星平台:
Starlink V1.0
覆盖范围:
全球
运营商:
太空探索技术公司
运营商所在国:
美国
制造商(研发单位):
太空探索技术公司
制造商所在国:
美国
使用方式:
暂无
Satellite Introduction
Starlink 计划是 SpaceX 推出的全球卫星互联网项目,通过发射低轨道卫星,为全球尤其是偏远地区提供高速、低延迟的互联网服务。自 2019 年起,Starlink 已部署数千颗卫星,旨在缩小全球数字鸿沟,推动互联网普及。该项目还为军事、航空等行业提供通信支持,带来广泛经济效益。
2D Orbit Map
3D Orbit Map
Orbit Altitude Analysis Chart
Orbit Inclination Analysis Chart
Orbit Comprehensive Analysis Chart
View Comprehensive Chart
Conjunction Data List
Event ID Objects TCA Miss Dist (km) Collision Risk Probability Collision Risk Index (CRI) Action
CDM_260906-235305-836506-210421
2026-09-06T
23:53:45+0000
1.780 km
极远距离
3.038355E-6 低风险 0.45
CDM_260907-030205-558506-210421
2026-09-07T
03:02:41+0000
2.531 km
极远距离
1.365206E-6 低风险 0.38
CDM_260906-101606-210406-453121
OBJECT D (64531)
2026-09-06T
10:16:46+0000
2.926 km
极远距离
1.219384E-6 低风险 0.37
CDM_260901-083705-476006-210421
2026-09-01T
08:37:56+0000
2.641 km
极远距离
7.740196E-7 极低风险 0.33